Regional Weather Roundup
Issued by NWS Little Rock, AR

Home | Current Version | Previous Version | Graphics & Text | Print | Product List | Glossary On
Versions: 1 2 3 4 5 6 7 8 9 10 11 12 13 14 15 16 17 18 19 20 21 22 23 24 25 26 27 28 29 30 31 32 33
000
ASUS44 KLZK 240612
RWRLZK

WEATHER ROUNDUP FOR ARKANSAS
NATIONAL WEATHER SERVICE LITTLE ROCK AR
100 AM CDT WED MAY 24 2017

NOTE: "FAIR" INDICATES FEW OR NO CLOUDS BELOW 12,000 FEET WITH NO
SIGNIFICANT WEATHER AND/OR OBSTRUCTIONS TO VISIBILITY.

ARZ001-003-010-029-240700-
NORTHWEST ARKANSAS

CITY           SKY/WX    TMP DP  RH WIND       PRES   REMARKS
FAYETTEVILLE   CLEAR     53  48  83 NW9       29.78F
6HR MIN TEMP:  53; 6HR MAX TEMP:  61;

FORT SMITH     CLOUDY    59  49  69 W10       29.77F
6HR MIN TEMP:  59; 6HR MAX TEMP:  65;

HARRISON       PTCLDY    53  49  86 W7        29.74F
6HR MIN TEMP:  53; 6HR MAX TEMP:  60;

BENTONVILLE    CLEAR     54  45  71 NW7       29.79F
6HR MIN TEMP:  54; 6HR MAX TEMP:  64;

ROGERS         CLEAR     52  47  83 NW9       29.79F
6HR MIN TEMP:  52; 6HR MAX TEMP:  64; 6HR PCP:  0.02;

SILOAM SPGS    PTCLDY    52  45  76 NW8       29.79F
6HR MIN TEMP:  52; 6HR MAX TEMP:  63;

HIGHFILL       CLEAR     54  47  77 NW8       29.79F
6HR MIN TEMP:  54; 6HR MAX TEMP:  65;

$$

ARZ004-005-016-240700-
NORTH CENTRAL ARKANSAS

CITY           SKY/WX    TMP DP  RH WIND       PRES   REMARKS
BATESVILLE     CLOUDY    61  55  82 CALM      29.70F
6HR MIN TEMP:  61; 6HR MAX TEMP:  66;

FLIPPIN        PTCLDY    55  50  82 W3        29.70F
6HR MIN TEMP:  55; 6HR MAX TEMP:  63;

MTN HOME       PTCLDY    53  53 100 CALM      29.71F
6HR MIN TEMP:  53; 6HR MAX TEMP:  63; 6HR PCP: TRACE;

$$

ARZ040-041-240700-
WEST CENTRAL ARKANSAS

CITY           SKY/WX    TMP DP  RH WIND       PRES   REMARKS
MENA           CLOUDY    61  57  88 W6        29.80F
MOUNT IDA      CLOUDY    59  55  87 CALM      29.75F
6HR MIN TEMP:  59; 6HR MAX TEMP:  70; 6HR PCP: TRACE;

$$

ARZ009-017-025-026-028-240700-
NORTHEAST ARKANSAS

CITY           SKY/WX    TMP DP  RH WIND       PRES   REMARKS
JONESBORO      LGT RAIN  61  59  93 CALM      29.67F
6HR MIN TEMP:  60; 6HR MAX TEMP:  63;

NEWPORT        LGT RAIN  61  59  93 NW8       29.69S
6HR MIN TEMP:  60; 6HR MAX TEMP:  62; 6HR PCP:  0.03;

WALNUT RIDGE   CLOUDY    61  55  82 NW9       29.68S
6HR MIN TEMP:  61; 6HR MAX TEMP:  66; 6HR PCP:  0.20;

BLYTHEVILLE    CLOUDY    62  60  93 N8        29.66F
6HR MIN TEMP:  62; 6HR MAX TEMP:  72; 6HR PCP:  0.02;

$$

ARZ022-023-033-042-044-240700-
CENTRAL ARKANSAS

CITY           SKY/WX    TMP DP  RH WIND       PRES   REMARKS
LITTLE ROCK    LGT RAIN  60  59  96 NW8       29.73S
6HR MIN TEMP:  60; 6HR MAX TEMP:  73; 6HR PCP:  0.02;

N LITTLE ROCK    N/A     59  57  92 NW5       29.72F
6HR MIN TEMP:  59; 6HR MAX TEMP:  72;

JACKSONVILLE   LGT RAIN  61  59  95 NW6       29.71F
6HR MIN TEMP:  61; 6HR MAX TEMP:  72; 6HR PCP:  0.13;

CONWAY           N/A     63  59  88 W5        29.71F
SEARCY         LGT RAIN  61  58  90 NW8       29.72F
6HR MIN TEMP:  61; 6HR MAX TEMP:  66; 6HR PCP:  0.06;

HOT SPRINGS    CLOUDY    61  58  90 NW3       29.75F
6HR MIN TEMP:  61; 6HR MAX TEMP:  72; 6HR PCP:  0.01;

RUSSELLVILLE   CLOUDY    61  56  83 NW3       29.73F
6HR MIN TEMP:  60; 6HR MAX TEMP:  66; 6HR PCP:  0.02;

CLINTON        FAIR      57  57 100 CALM      29.72F
$$

ARZ036-240700-
EAST ARKANSAS

CITY           SKY/WX    TMP DP  RH WIND       PRES   REMARKS
WEST MEMPHIS   LGT RAIN  61  61 100 CALM      29.65F
6HR MIN TEMP:  60; 6HR MAX TEMP:  72; 6HR PCP:  0.04;

$$

ARZ050-053-066-070-073-240700-
SOUTHWEST ARKANSAS

CITY           SKY/WX    TMP DP  RH WIND       PRES   REMARKS
ARKADELPHIA    CLOUDY    59  58  96 W3        29.77F
6HR MIN TEMP:  59; 6HR MAX TEMP:  68; 6HR PCP:  0.21;

CAMDEN         HVY RAIN  57  55  94 NW9       29.78R
TEXARKANA      CLOUDY    59  59 100 W7        29.80F
6HR MIN TEMP:  59; 6HR MAX TEMP:  65; 6HR PCP:  0.27;

EL DORADO      RAIN      58  57  97 W8        29.79R FOG
6HR MIN TEMP:  57; 6HR MAX TEMP:  68; 6HR PCP:  0.46;

DE QUEEN       PTCLDY    56  56 100 CALM      29.79F
6HR MIN TEMP:  56; 6HR MAX TEMP:  71; 6HR PCP:  0.01;

$$

ARZ056-057-069-240700-
SOUTHEAST ARKANSAS

CITY           SKY/WX    TMP DP  RH WIND       PRES   REMARKS
PINE BLUFF     RAIN      60  58  92 NW14      29.72S
6HR MIN TEMP:  60; 6HR MAX TEMP:  70; 6HR PCP:  0.24;

STUTTGART      CLOUDY    63  50  63 NW14      29.70F
6HR MIN TEMP:  63; 6HR MAX TEMP:  75; 6HR PCP:  1.18;

MONTICELLO     HVY RAIN  61  59  93 NW10G24   29.71R VSB 1
6HR MIN TEMP:  62; 6HR MAX TEMP:  64; 6HR PCP:  0.63;


$$






USA.gov is the U.S. government's official web portal to all federal, state and local government web resources and services.